Location: Enid
(36.3960°N, 97.8780°W)
Time: 06:18:32
(UTC-05:00)

HST - Visible Passes

Search period start: 25 July 2014 00:00
Search period end: 04 August 2014 00:00
Orbit: 548 x 552 km, 28.5° (Epoch: 24 July)

Date Brightness Start Highest point End Pass type
(mag) Time Alt. Az. Time Alt. Az. Time Alt. Az.
25 Jul 2.1 21:33:16 10° WSW 21:36:44 25° S 21:39:21 14° SE visible
26 Jul 2.3 21:26:29 10° WSW 21:29:49 23° S 21:32:45 12° SE visible
27 Jul 2.5 21:19:46 10° WSW 21:22:54 20° SSW 21:26:02 10° SE visible
28 Jul 2.7 21:13:08 10° WSW 21:15:58 18° SSW 21:18:48 10° SSE visible
29 Jul 3.0 21:06:39 10° SW 21:09:02 15° SSW 21:11:25 10° SSE visible
